Zurück zum Katalog

ONEWEB-0147

AktivKommunikationPO
NORAD 47293·PAYLOAD·🇬🇧 United Kingdom

Gestartet Dec 18, 2020 von Vostochny Cosmodrome

Loading…

Nächste Überflüge (nächste 24 Stunden)

TLE

AktuellSource: CelesTrak SupGP

Epoche: Sep 14, 2026, 16:06 UTC

1 47293C 20100AM  26257.67136991  .00002355  00000+0  65535-2 0  2579
2 47293  87.8999 332.8829 0001910  95.1134   6.0931 13.12445114    12

Verfolge ONEWEB-0147 in Echtzeit mit AllMySat

Download on the App Store